Kelso-Longview, WA
on Monday, November 19, 2012

Monday
Previous Day Next Day
Daily Summary
 ActualAverage (KSPB)Record (KSPB)
Temperature
Mean Temperature °F °F  
Max Temperature 55°F °F 57°F (2002)
Min Temperature 50°F °F 24°F (2000)
Degree Days
Heating Degree Days 12    
Month to date heating degree days  
Since 1 July heating degree days  
Cooling Degree Days 0    
Month to date cooling degree days  
Year to date cooling degree days  
Growing Degree Days2 (Base °F )  
Moisture
Dew Point 48°F   
Average Humidity 81    
Maximum Humidity 88    
Minimum Humidity 77    
Precipitation
Precipitation 1.96 in in 2.76 in (2012)
Month to date precipitation  
Year to date precipitation  
Wind
Wind Speed 19 mph   
Max Wind Speed 25 mph   
Max Gust Speed 40 mph   
Visibility 9 miles   
Events     

Key: T is trace of precipitation, MM is missing value
Source: NWS Daily Summary
Time(PST)TemperatureDew PointHumidity Pressure Visibility Wind DirectionWind SpeedGust SpeedPrecipitationEvents Conditions
12:15 AM 50.0°F 44.6°F 82% 29.62 in 8.0 miles SSE 24.2 mph 33.4 mph 0.09 in   Overcast
12:35 AM 50.0°F 44.6°F 82% 29.62 in 8.0 miles SSE 19.6 mph 31.1 mph 0.16 in   Overcast
12:55 AM 50.0°F 44.6°F 82% 29.61 in 10.0 miles SSE 13.8 mph 28.8 mph 0.18 in   Overcast
1:15 AM 50.0°F 44.6°F 82% 29.60 in 10.0 miles SSE 20.7 mph 29.9 mph 0.01 in   Overcast
1:35 AM 51.8°F 46.4°F 82% 29.59 in 10.0 miles SSE 24.2 mph 34.5 mph 0.02 in   Overcast
1:55 AM 51.8°F 46.4°F 82% 29.60 in 10.0 miles SSE 24.2 mph 29.9 mph 0.03 in   Overcast
2:15 AM 51.8°F 46.4°F 82% 29.60 in 10.0 miles SSE 23.0 mph 32.2 mph 0.01 in   Overcast
2:35 AM 51.8°F 46.4°F 82% 29.60 in 8.0 miles SSE 18.4 mph 31.1 mph 0.08 in   Overcast
2:55 AM 51.8°F 46.4°F 82% 29.60 in 10.0 miles SSE 20.7 mph 31.1 mph 0.12 in   Overcast
3:15 AM 51.8°F 46.4°F 82% 29.59 in 10.0 miles SSE 21.9 mph 31.1 mph 0.03 in   Overcast
3:35 AM 51.8°F 46.4°F 82% 29.59 in 10.0 miles SSE 18.4 mph 33.4 mph 0.09 in   Overcast
3:55 AM 51.8°F 46.4°F 82% 29.58 in 10.0 miles SSE 15.0 mph 32.2 mph 0.15 in   Overcast
4:15 AM 51.8°F 46.4°F 82% 29.56 in 10.0 miles SSE 17.3 mph 29.9 mph 0.06 in   Overcast
4:35 AM 51.8°F 46.4°F 82% 29.57 in 10.0 miles SSE 18.4 mph 32.2 mph 0.09 in   Mostly Cloudy
4:55 AM 51.8°F 46.4°F 82% 29.56 in 10.0 miles SSE 21.9 mph 32.2 mph 0.12 in   Overcast
5:35 AM 53.6°F 46.4°F 77% 29.55 in 10.0 miles SSE 21.9 mph 31.1 mph 0.08 in   Overcast
5:55 AM 53.6°F 46.4°F 77% 29.54 in 10.0 miles SSE 25.3 mph 32.2 mph 0.12 in   Overcast
6:15 AM 53.6°F 46.4°F 77% 29.54 in 10.0 miles SSE 17.3 mph 29.9 mph 0.05 in   Overcast
6:35 AM 53.6°F 46.4°F 77% 29.53 in 10.0 miles SSE 20.7 mph 29.9 mph 0.08 in   Mostly Cloudy
6:55 AM 53.6°F 48.2°F 82% 29.53 in 9.0 miles SSE 23.0 mph 29.9 mph 0.12 in   Mostly Cloudy
7:15 AM 53.6°F 46.4°F 77% 29.52 in 10.0 miles SSE 24.2 mph 36.8 mph 0.05 in   Mostly Cloudy
7:35 AM 53.6°F 46.4°F 77% 29.51 in 10.0 miles SSE 23.0 mph 34.5 mph 0.08 in   Overcast
7:55 AM 53.6°F 48.2°F 82% 29.51 in 9.0 miles SSE 19.6 mph 31.1 mph 0.09 in   Overcast
8:15 AM 53.6°F 48.2°F 82% 29.53 in 6.0 miles SSE 17.3 mph 29.9 mph 0.02 in   Overcast
8:35 AM 53.6°F 48.2°F 82% 29.51 in 7.0 miles SSE 17.3 mph 27.6 mph 0.13 in   Overcast
8:55 AM 53.6°F 48.2°F 82% 29.50 in 9.0 miles SSE 21.9 mph 28.8 mph 0.20 in   Overcast
9:15 AM 53.6°F 48.2°F 82% 29.49 in 10.0 miles SSE 23.0 mph 31.1 mph 0.05 in   Overcast
9:35 AM 53.6°F 48.2°F 82% 29.49 in 9.0 miles SSE 21.9 mph 34.5 mph 0.09 in   Overcast
9:55 AM 53.6°F 48.2°F 82% 29.50 in 7.0 miles SSE 20.7 mph 35.7 mph 0.13 in   Overcast
10:15 AM 53.6°F 48.2°F 82% 29.49 in 9.0 miles SSE 24.2 mph 35.7 mph 0.06 in   Overcast
10:35 AM 53.6°F 48.2°F 82% 29.49 in 10.0 miles SSE 24.2 mph 34.5 mph 0.09 in   Overcast
10:55 AM 55.4°F 48.2°F 77% 29.47 in 10.0 miles SSE 24.2 mph 38.0 mph 0.11 in   Mostly Cloudy
11:15 AM 53.6°F 48.2°F 82% 29.47 in 7.0 miles SSE 24.2 mph 40.3 mph 0.01 in   Mostly Cloudy
11:35 AM 53.6°F 48.2°F 82% 29.46 in 8.0 miles SSE 23.0 mph 38.0 mph 0.05 in   Overcast
11:55 AM 53.6°F 48.2°F 82% 29.47 in 7.0 miles SSE 21.9 mph 38.0 mph 0.08 in   Mostly Cloudy
12:15 PM 53.6°F 48.2°F 82% 29.46 in 5.0 miles SSE 24.2 mph 38.0 mph 0.07 in   Overcast
12:35 PM 53.6°F 50.0°F 88% 29.47 in 5.0 miles SSE 23.0 mph 33.4 mph 0.16 in   Overcast
12:55 PM 53.6°F 50.0°F 88% 29.47 in 5.0 miles SSE 24.2 mph 38.0 mph 0.25 in   Overcast
1:15 PM 53.6°F 50.0°F 88% 29.48 in 6.0 miles SSE 21.9 mph 32.2 mph 0.09 in   Overcast
1:35 PM 55.4°F 50.0°F 82% 29.49 in 7.0 miles SSE 23.0 mph 34.5 mph 0.14 in   Overcast
1:55 PM 53.6°F 50.0°F 88% 29.52 in 5.0 miles SSE 17.3 mph 31.1 mph 0.24 in   Overcast
2:15 PM 53.6°F 50.0°F 88% 29.52 in 8.0 miles SSE 15.0 mph 27.6 mph N/A   Mostly Cloudy
2:35 PM 55.4°F 50.0°F 82% 29.49 in 10.0 miles SSE 16.1 mph 26.5 mph N/A   Overcast
2:55 PM 55.4°F 48.2°F 77% 29.49 in 10.0 miles South 16.1 mph 23.0 mph N/A   Mostly Cloudy
3:15 PM 55.4°F 48.2°F 77% 29.53 in 10.0 miles SSE 19.6 mph 29.9 mph N/A   Scattered Clouds
3:35 PM 55.4°F 48.2°F 77% 29.53 in 10.0 miles SSE 13.8 mph 27.6 mph N/A   Mostly Cloudy
3:55 PM 55.4°F 48.2°F 77% 29.54 in 10.0 miles SSE 16.1 mph 20.7 mph N/A   Overcast
4:15 PM 55.4°F 48.2°F 77% 29.54 in 10.0 miles SSE 13.8 mph 23.0 mph N/A   Overcast
4:35 PM 53.6°F 48.2°F 82% 29.56 in 10.0 miles SSE 12.7 mph 16.1 mph 0.01 in   Overcast
4:55 PM 53.6°F 48.2°F 82% 29.57 in 10.0 miles South 9.2 mph - 0.01 in   Overcast
5:15 PM 53.6°F 48.2°F 82% 29.56 in 10.0 miles South 9.2 mph - N/A   Overcast
5:35 PM 53.6°F 48.2°F 82% 29.57 in 10.0 miles South 13.8 mph 17.3 mph N/A   Mostly Cloudy
5:55 PM 53.6°F 48.2°F 82% 29.59 in 10.0 miles South 12.7 mph - N/A   Mostly Cloudy
6:15 PM 53.6°F 48.2°F 82% 29.60 in 10.0 miles South 12.7 mph 17.3 mph N/A   Overcast
6:35 PM 53.6°F 48.2°F 82% 29.61 in 10.0 miles South 12.7 mph 17.3 mph 0.01 in   Mostly Cloudy
6:55 PM 53.6°F 48.2°F 82% 29.61 in 10.0 miles South 10.4 mph - 0.01 in   Mostly Cloudy
7:15 PM 53.6°F 48.2°F 82% 29.62 in 10.0 miles South 10.4 mph - N/A   Overcast
7:35 PM 53.6°F 48.2°F 82% 29.63 in 10.0 miles SSE 9.2 mph - N/A   Mostly Cloudy
7:55 PM 53.6°F 48.2°F 82% 29.64 in 10.0 miles South 10.4 mph - N/A   Overcast
8:15 PM 53.6°F 48.2°F 82% 29.65 in 10.0 miles South 6.9 mph - N/A   Overcast
8:35 PM 53.6°F 48.2°F 82% 29.64 in 10.0 miles SSE 6.9 mph - N/A   Overcast
8:55 PM 53.6°F 48.2°F 82% 29.66 in 10.0 miles SSE 10.4 mph - N/A   Overcast
9:15 PM 53.6°F 48.2°F 82% 29.68 in 10.0 miles SSE 12.7 mph 17.3 mph N/A   Overcast
9:35 PM 53.6°F 48.2°F 82% 29.66 in 10.0 miles SSE 10.4 mph 17.3 mph N/A   Overcast
9:55 PM 53.6°F 48.2°F 82% 29.68 in 10.0 miles SSE 11.5 mph 16.1 mph N/A   Overcast
10:15 PM 53.6°F 46.4°F 77% 29.69 in 10.0 miles SSE 12.7 mph 17.3 mph N/A   Overcast
10:35 PM 53.6°F 46.4°F 77% 29.69 in 10.0 miles SSE 12.7 mph - N/A   Overcast
10:55 PM 51.8°F 46.4°F 82% 29.71 in 10.0 miles SSE 9.2 mph - N/A   Overcast
11:15 PM 51.8°F 46.4°F 82% 29.71 in 10.0 miles SE 9.2 mph - N/A   Overcast
11:35 PM 51.8°F 46.4°F 82% 29.71 in 10.0 miles SSE 5.8 mph - N/A   Mostly Cloudy
11:55 PM 51.8°F 46.4°F 82% 29.72 in 10.0 miles SSE 5.8 mph - N/A   Mostly Cloudy
Moon Phase
Nov. 19 Nov. 20 Nov. 28 Dec. 06 Dec. 13
Sunrise:07:18 AM (PST) Moon Rise:12:16 PM (PST)
Sunset:04:35 PM (PST) Moon Set:11:17 PM (PST)

Copyright © 2014 The Weather Underground, Inc.